Franklin, NC

6:49 AM EDT on April 27, 2017 (GMT -0400)
Franklin

Weather History for K1A5 - June, 2014

Change the Weather History Date:

Monday, June 23, 2014

  Actual Average (KTOC) Record (KTOC)
Temperature  
Mean Temperature 70 °F -  
Max Temperature 83 °F 87 °F 97 °F (2015)
Min Temperature 57 °F 64 °F 69 °F (2015)
Cooling Degree Days 5    
Growing Degree Days 20 (Base 50)    
Moisture  
Dew Point 62 °F    
Average Humidity 76    
Maximum Humidity 100    
Minimum Humidity 44    
Precipitation  
Precipitation 0.00 in - - ()
Sea Level Pressure  
Sea Level Pressure 30.10 in    
Wind  
Wind Speed 1 mph (SSE)    
Max Wind Speed 7 mph    
Max Gust Speed -    
Visibility 8 miles    
Events Rain    
Averages and records for this station are not official NWS values.
T = Trace of Precipitation, MM = Missing Value Source: NWS Daily Summary

Daily Weather History Graph

Daily Weather History Graph

Search for Another Location

Airport or City:

Trip Planner

Search our weather history database for the weather conditions in past years. The results will help you decide how hot, cold, wet, or windy it might be!

Date:

Astronomy

Jun. 23, 2014 Rise Set
Actual Time 6:19 AM EDT 8:51 PM EDT
Civil Twilight 5:50 AM EDT 9:21 PM EDT
Nautical Twilight 5:13 AM EDT 9:58 PM EDT
Astronomical Twilight 4:32 AM EDT 10:39 PM EDT
Moon 3:39 AM EDT (6/23) 5:37 PM EDT (6/23)
Length of Visible Light 15h 31m
Length of Day
14h 31m
Waning Crescent, 13% of the Moon is Illuminated
Jun 23
Waning Crescent
Jun 27
New
Jul 5
First Quarter
Jul 12
Full
Jul 18
Last Quarter

Hourly Weather History & Observations

Time (EDT) Temp. Heat Index Dew Point Humidity Pressure Visibility Wind Dir Wind Speed Gust Speed Precip Events Conditions
12:15 AM 64.0 °F - 64.0 °F 100% 30.05 in 7.0 mi Calm Calm - N/A   Clear
12:35 AM 63.9 °F - 63.9 °F 100% 30.05 in 10.0 mi Calm Calm - N/A   Clear
12:55 AM 63.5 °F - 63.5 °F 100% 30.05 in 7.0 mi Calm Calm - N/A   Clear
1:35 AM 61.9 °F - 61.9 °F 100% 30.04 in 7.0 mi Calm Calm - N/A   Clear
1:55 AM 61.3 °F - 61.3 °F 100% 30.04 in 7.0 mi Calm Calm - N/A   Clear
2:15 AM 61.2 °F - 61.2 °F 100% 30.04 in 7.0 mi Calm Calm - N/A   Clear
2:35 AM 61.2 °F - 61.2 °F 100% 30.05 in 5.0 mi Calm Calm - N/A   Clear
2:55 AM 60.8 °F - 60.8 °F 100% 30.05 in 7.0 mi Calm Calm - N/A   Clear
3:15 AM 60.4 °F - 60.4 °F 100% 30.05 in 7.0 mi Calm Calm - N/A   Clear
3:35 AM 60.6 °F - 60.6 °F 100% 30.05 in 5.0 mi Calm Calm - N/A   Scattered Clouds
3:55 AM 60.1 °F - 60.1 °F 100% 30.05 in 4.0 mi Calm Calm - N/A   Scattered Clouds
4:15 AM 59.9 °F - 59.9 °F 100% 30.06 in 5.0 mi Calm Calm - N/A   Clear
4:35 AM 59.4 °F - 59.4 °F 100% 30.06 in 4.0 mi Calm Calm - N/A   Clear
4:55 AM 58.6 °F - 58.6 °F 100% 30.07 in 5.0 mi Calm Calm - N/A   Clear
5:15 AM 58.5 °F - 58.5 °F 100% 30.07 in 7.0 mi Calm Calm - N/A   Clear
5:35 AM 59.0 °F - 59.0 °F 100% 30.08 in 5.0 mi Calm Calm - N/A   Clear
5:55 AM 58.1 °F - 58.1 °F 100% 30.08 in 4.0 mi Calm Calm - N/A   Clear
6:15 AM 58.1 °F - 58.1 °F 100% 30.09 in 7.0 mi Calm Calm - N/A   Clear
6:35 AM 57.9 °F - 57.9 °F 100% 30.11 in 3.0 mi Calm Calm - N/A   Scattered Clouds
6:55 AM 57.7 °F - 57.7 °F 100% 30.11 in 1.2 mi Calm Calm - N/A   Scattered Clouds
7:15 AM 57.9 °F - 57.9 °F 100% 30.11 in 0.8 mi Calm Calm - N/A   Mostly Cloudy
7:35 AM 59.0 °F - 59.0 °F 100% 30.11 in 5.0 mi Calm Calm - N/A   Scattered Clouds
7:55 AM 60.1 °F - 60.1 °F 100% 30.12 in 7.0 mi Calm Calm - N/A   Scattered Clouds
8:15 AM 61.7 °F - 61.7 °F 100% 30.12 in 10.0 mi Calm Calm - N/A   Clear
8:35 AM 63.5 °F - 63.5 °F 100% 30.13 in 10.0 mi Calm Calm - N/A   Clear
8:55 AM 65.8 °F - 64.8 °F 96% 30.13 in 10.0 mi Calm Calm - N/A   Clear
9:15 AM 68.5 °F - 64.0 °F 85% 30.13 in 10.0 mi Calm Calm - N/A   Clear
9:35 AM 69.8 °F - 60.8 °F 73% 30.14 in 10.0 mi Calm Calm - N/A   Clear
9:55 AM 72.3 °F - 61.9 °F 70% 30.14 in 10.0 mi Calm Calm - N/A   Clear
10:15 AM 73.9 °F - 62.1 °F 66% 30.13 in 10.0 mi Calm Calm - N/A   Clear
10:35 AM 75.2 °F - 62.6 °F 65% 30.14 in 10.0 mi Calm Calm - N/A   Clear
10:55 AM 76.8 °F - 63.7 °F 64% 30.13 in 10.0 mi Calm Calm - N/A   Clear
11:15 AM 78.1 °F - 63.0 °F 60% 30.13 in 10.0 mi Calm Calm - N/A   Clear
11:35 AM 79.7 °F - 63.7 °F 58% 30.13 in 10.0 mi Calm Calm - N/A   Scattered Clouds
11:55 AM 78.4 °F - 63.7 °F 60% 30.13 in 10.0 mi Calm Calm - N/A   Scattered Clouds
12:20 PM 80.6 °F 81.7 °F 62.1 °F 53% 30.13 in 10.0 mi SSE 4.6 mph - N/A   Scattered Clouds
12:35 PM 80.2 °F 81.5 °F 62.6 °F 55% 30.13 in 10.0 mi SSE 6.9 mph - N/A   Clear
12:55 PM 81.3 °F 82.7 °F 63.7 °F 55% 30.13 in 10.0 mi South 5.8 mph - N/A   Clear
1:15 PM 81.3 °F 82.9 °F 64.4 °F 56% 30.13 in 10.0 mi SW 6.9 mph - N/A   Clear
1:35 PM 81.3 °F 83.0 °F 64.6 °F 57% 30.13 in 10.0 mi SSE 4.6 mph - N/A   Scattered Clouds
1:55 PM 81.7 °F 82.7 °F 62.4 °F 52% 30.12 in 10.0 mi SE 5.8 mph - N/A   Scattered Clouds
2:15 PM 80.8 °F 82.4 °F 64.0 °F 57% 30.13 in 10.0 mi East 5.8 mph - N/A   Mostly Cloudy
2:35 PM 77.9 °F - 61.3 °F 57% 30.11 in 10.0 mi ESE 3.5 mph - N/A   Overcast
2:55 PM 81.3 °F 82.5 °F 62.6 °F 53% 30.11 in 10.0 mi North 3.5 mph - N/A   Mostly Cloudy
3:15 PM 81.5 °F 82.5 °F 62.4 °F 52% 30.10 in 10.0 mi Calm Calm - N/A   Scattered Clouds
3:40 PM 82.9 °F 84.0 °F 63.0 °F 51% 30.09 in 10.0 mi SW 4.6 mph - N/A   Mostly Cloudy
3:55 PM 82.9 °F 84.0 °F 63.0 °F 51% 30.09 in 10.0 mi SW 5.8 mph - N/A   Scattered Clouds
4:15 PM 82.4 °F 82.9 °F 60.6 °F 48% 30.08 in 10.0 mi South 5.8 mph - N/A   Clear
4:35 PM 83.5 °F 84.3 °F 62.2 °F 49% 30.07 in 10.0 mi SW 3.5 mph - N/A   Scattered Clouds
4:55 PM 83.5 °F 83.7 °F 60.8 °F 46% 30.07 in 10.0 mi SSE 4.6 mph - N/A   Mostly Cloudy
5:15 PM 83.3 °F 83.2 °F 59.5 °F 44% 30.07 in 10.0 mi SSW 5.8 mph - N/A   Mostly Cloudy
5:35 PM 80.6 °F 81.6 °F 61.3 °F 52% 30.08 in 10.0 mi SW 4.6 mph - N/A   Clear
5:50 PM 80.8 °F 81.5 °F 60.6 °F 50% 30.07 in 10.0 mi South 4.6 mph - N/A   Scattered Clouds
6:15 PM 82.4 °F 83.0 °F 61.5 °F 49% 30.07 in 10.0 mi SSE 3.5 mph - N/A   Clear
6:35 PM 81.1 °F 81.9 °F 60.8 °F 50% 30.08 in 10.0 mi SSE 5.8 mph - N/A   Clear
6:55 PM 80.2 °F 81.3 °F 61.7 °F 53% 30.09 in 10.0 mi SE 3.5 mph - N/A   Scattered Clouds
7:10 PM 79.0 °F - 62.4 °F 57% 30.09 in 10.0 mi South 4.6 mph - N/A   Mostly Cloudy
7:40 PM 77.2 °F - 59.4 °F 54% 30.10 in 10.0 mi SSE 3.5 mph - N/A   Scattered Clouds
7:55 PM 76.1 °F - 59.5 °F 56% 30.10 in 10.0 mi Calm Calm - N/A   Scattered Clouds
8:15 PM 74.5 °F - 61.2 °F 63% 30.10 in 10.0 mi Calm Calm - N/A   Scattered Clouds
8:35 PM 72.5 °F - 62.4 °F 71% 30.11 in 10.0 mi Calm Calm - N/A   Scattered Clouds
8:55 PM 70.9 °F - 63.0 °F 76% 30.12 in 10.0 mi Calm Calm - N/A   Scattered Clouds
9:15 PM 70.0 °F - 62.6 °F 77% 30.12 in 10.0 mi NE 3.5 mph - N/A   Mostly Cloudy
9:35 PM 70.5 °F - 62.4 °F 75% 30.13 in 10.0 mi Calm Calm - N/A   Mostly Cloudy
9:55 PM 69.4 °F - 62.8 °F 79% 30.14 in 10.0 mi Calm Calm - N/A   Mostly Cloudy
10:15 PM 70.9 °F - 62.4 °F 75% 30.15 in 10.0 mi Calm Calm - N/A   Overcast
10:40 PM 69.6 °F - 62.6 °F 78% 30.15 in 10.0 mi ENE 3.5 mph - N/A   Scattered Clouds
11:20 PM 68.0 °F - 64.4 °F 88% 30.16 in 10.0 mi Calm Calm - N/A   Overcast
11:40 PM 70.2 °F - 62.1 °F 75% 30.17 in 10.0 mi ENE 3.5 mph - N/A   Overcast
11:55 PM 69.4 °F - 63.1 °F 80% 30.18 in 10.0 mi East 4.6 mph - N/A Rain Light Rain